Weather History for KCKC - January, 2013

Change the Weather History Date:

Wednesday, January 16, 2013

  Actual Average Record
Temperature  
Mean Temperature 5 °F -  
Max Temperature 21 °F 13 °F 30 °F (1999)
Min Temperature -11 °F 0 °F -25 °F (2005)
Degree Days  
Heating Degree Days 60    
Moisture  
Dew Point 0 °F    
Average Humidity 67    
Maximum Humidity 86    
Minimum Humidity 44    
Precipitation  
Precipitation 0.00 in - - ()
Sea Level Pressure  
Sea Level Pressure 29.64 in    
Wind  
Wind Speed 13 mph (WNW)    
Max Wind Speed 18 mph    
Max Gust Speed 28 mph    
Visibility 7 miles    
Events      
Averages and records for this station are not official NWS values.
T = Trace of Precipitation, MM = Missing Value Source: NWS Daily Summary

Daily Weather History Graph

Daily Weather History Graph

Search for Another Location

Airport or City:

Trip Planner

Search our weather history database for the weather conditions in past years. The results will help you decide how hot, cold, wet, or windy it might be!

Date:

Astronomy

Jan. 16, 2013 Rise Set
Actual Time 7:44 AM CST 4:38 PM CST
Civil Twilight 7:10 AM CST 5:13 PM CST
Nautical Twilight 6:31 AM CST 5:51 PM CST
Astronomical Twilight 5:54 AM CST 6:28 PM CST
Moon 9:53 AM CST (1/16) 11:00 PM CST (1/16)
Length of Visible Light 10h 02m
Length of Day
8h 53m
Waxing Crescent, 28% of the Moon is Illuminated
Jan 16
Waxing Crescent
Jan 18
First Quarter
Jan 26
Full
Feb 3
Last Quarter
Feb 10
New

Hourly Weather History & Observations

Time (CST) Temp. Windchill Dew Point Humidity Pressure Visibility Wind Dir Wind Speed Gust Speed Precip Events Conditions
12:01 AM 19.4 °F 4.1 °F 8.6 °F 63% 29.56 in 10.0 mi SSW 18.4 mph 27.6 mph N/A   Scattered Clouds
12:41 AM 19.4 °F 5.0 °F 10.4 °F 68% 29.53 in 10.0 mi SSW 16.1 mph 25.3 mph N/A   Mostly Cloudy
1:01 AM 19.4 °F 6.0 °F 12.2 °F 74% 29.51 in 10.0 mi South 13.8 mph 24.2 mph N/A   Overcast
1:21 AM 21.2 °F 8.3 °F 14.0 °F 74% 29.48 in 3.0 mi South 13.8 mph 21.9 mph N/A   Overcast
1:41 AM 19.4 °F 4.5 °F 15.8 °F 86% 29.46 in 0.8 mi SSW 17.3 mph 24.2 mph N/A   Overcast
2:01 AM 19.4 °F 7.2 °F 15.8 °F 86% 29.45 in 0.8 mi South 11.5 mph 20.7 mph N/A   Overcast
2:21 AM 19.4 °F 4.5 °F 15.8 °F 86% 29.43 in 0.5 mi South 17.3 mph 26.5 mph N/A   Overcast
3:01 AM 19.4 °F 5.0 °F 15.8 °F 86% 29.40 in 0.5 mi SSW 16.1 mph 24.2 mph N/A   Overcast
3:21 AM 19.4 °F 4.5 °F 15.8 °F 86% 29.39 in 0.5 mi SSW 17.3 mph 25.3 mph N/A   Overcast
4:01 AM 19.4 °F 7.2 °F 15.8 °F 86% 29.38 in 10.0 mi SW 11.5 mph 20.7 mph N/A   Overcast
4:21 AM 19.4 °F 9.5 °F 14.0 °F 80% 29.37 in 2.5 mi SW 8.1 mph 20.7 mph N/A   Overcast
4:41 AM 19.4 °F 9.5 °F 14.0 °F 80% 29.36 in 1.8 mi SW 8.1 mph - N/A   Overcast
5:01 AM 19.4 °F 9.5 °F 14.0 °F 80% 29.36 in 1.5 mi SW 8.1 mph - N/A   Overcast
5:54 AM 19.4 °F 8.6 °F 15.8 °F 86% 29.36 in 7.0 mi WSW 9.2 mph 18.4 mph N/A   Overcast
6:21 AM 19.4 °F 7.9 °F 15.8 °F 86% 29.37 in 10.0 mi WSW 10.4 mph 20.7 mph N/A   Overcast
6:41 AM 19.4 °F 5.5 °F 15.8 °F 86% 29.37 in 7.0 mi West 15.0 mph 20.7 mph N/A   Overcast
7:04 AM 19.4 °F 7.9 °F 15.8 °F 86% 29.39 in 7.0 mi West 10.4 mph 18.4 mph N/A   Overcast
7:21 AM 19.4 °F 5.5 °F 15.8 °F 86% 29.40 in 5.0 mi West 15.0 mph 24.2 mph N/A   Overcast
7:41 AM 19.4 °F 8.6 °F 15.8 °F 86% 29.41 in 7.0 mi West 9.2 mph 20.7 mph N/A   Overcast
8:01 AM 19.4 °F 5.0 °F 15.8 °F 86% 29.42 in 7.0 mi WNW 16.1 mph 25.3 mph N/A   Overcast
8:41 AM 19.4 °F 7.9 °F 12.2 °F 74% 29.45 in 10.0 mi WNW 10.4 mph 18.4 mph N/A   Overcast
9:01 AM 19.4 °F 7.2 °F 14.0 °F 80% 29.46 in 2.0 mi WNW 11.5 mph 21.9 mph N/A   Overcast
9:41 AM 17.6 °F 5.0 °F 10.4 °F 73% 29.49 in 4.0 mi WNW 11.5 mph 26.5 mph N/A   Overcast
10:01 AM 17.6 °F 5.0 °F 8.6 °F 68% 29.49 in 2.5 mi NW 11.5 mph 25.3 mph N/A   Overcast
10:21 AM 15.8 °F 3.4 °F 6.8 °F 68% 29.50 in 5.0 mi WNW 10.4 mph 21.9 mph N/A   Overcast
10:41 AM 15.8 °F 2.7 °F 6.8 °F 68% 29.52 in 2.0 mi WNW 11.5 mph 18.4 mph N/A   Overcast
11:01 AM 15.8 °F 3.4 °F 8.6 °F 73% 29.53 in 0.8 mi WNW 10.4 mph 20.7 mph N/A   Overcast
11:21 AM 15.8 °F 2.1 °F 6.8 °F 68% 29.54 in 1.0 mi NW 12.7 mph 21.9 mph N/A   Overcast
12:01 PM 15.8 °F 1.4 °F 1.4 °F 53% 29.56 in 7.0 mi WNW 13.8 mph 23.0 mph N/A   Scattered Clouds
12:21 PM 15.8 °F 0.9 °F 1.4 °F 53% 29.56 in 10.0 mi NW 15.0 mph 23.0 mph N/A   Clear
1:01 PM 15.8 °F 2.7 °F 1.4 °F 53% 29.59 in 10.0 mi West 11.5 mph 23.0 mph N/A   Scattered Clouds
1:21 PM 14.0 °F 1.2 °F -0.4 °F 53% 29.60 in 10.0 mi WNW 10.4 mph 21.9 mph N/A   Scattered Clouds
1:41 PM 14.0 °F -2.5 °F -0.4 °F 53% 29.61 in 10.0 mi NW 17.3 mph 25.3 mph N/A   Scattered Clouds
2:01 PM 10.4 °F -4.8 °F -2.2 °F 57% 29.64 in 10.0 mi WNW 12.7 mph 20.7 mph N/A   Scattered Clouds
2:41 PM 12.2 °F -2.5 °F -5.8 °F 45% 29.67 in 10.0 mi WNW 12.7 mph 26.5 mph N/A   Clear
3:01 PM 10.4 °F -6.0 °F -7.6 °F 44% 29.69 in 10.0 mi NW 15.0 mph 26.5 mph N/A   Clear
3:57 PM 8.6 °F -8.9 °F -9.4 °F 44% 29.75 in 10.0 mi WNW 16.1 mph 21.9 mph N/A   Clear
4:15 PM 6.8 °F -10.0 °F -11.2 °F 44% 29.77 in 10.0 mi NW 13.8 mph 25.3 mph N/A   Clear
4:41 PM 5.0 °F -12.3 °F -11.2 °F 47% 29.79 in 10.0 mi WNW 13.8 mph 19.6 mph N/A   Clear
5:01 PM 3.2 °F -13.9 °F -9.4 °F 56% 29.80 in 10.0 mi WNW 12.7 mph 20.7 mph N/A   Clear
5:21 PM 3.2 °F -13.9 °F -9.4 °F 56% 29.82 in 10.0 mi NW 12.7 mph 20.7 mph N/A   Clear
6:01 PM 1.4 °F -14.5 °F -11.2 °F 56% 29.86 in 10.0 mi NW 10.4 mph 17.3 mph N/A   Clear
6:21 PM -0.4 °F -18.4 °F -14.8 °F 51% 29.87 in 10.0 mi WNW 12.7 mph 23.0 mph N/A   Clear
6:41 PM -0.4 °F -19.2 °F -16.6 °F 46% 29.89 in 10.0 mi NW 13.8 mph 25.3 mph N/A   Clear
7:01 PM -2.2 °F -19.9 °F -16.6 °F 50% 29.90 in 10.0 mi NW 11.5 mph 17.3 mph N/A   Clear
7:41 PM -4.0 °F -19.0 °F -16.6 °F 55% 29.93 in 10.0 mi WNW 8.1 mph 19.6 mph N/A   Scattered Clouds
8:01 PM -5.8 °F -24.4 °F -16.6 °F 60% 29.94 in 10.0 mi NW 11.5 mph 23.0 mph N/A   Clear
8:41 PM -7.6 °F -25.7 °F -18.4 °F 59% 29.96 in 10.0 mi WNW 10.4 mph 20.7 mph N/A   Scattered Clouds
9:01 PM -7.6 °F -27.5 °F -18.4 °F 59% 29.96 in 10.0 mi NW 12.7 mph 19.6 mph N/A   Clear
9:21 PM -7.6 °F -23.4 °F -18.4 °F 59% 29.98 in 10.0 mi NW 8.1 mph - N/A   Clear
9:41 PM -9.4 °F -22.7 °F -18.4 °F 65% 29.99 in 10.0 mi NW 5.8 mph - N/A   Scattered Clouds
10:01 PM -9.4 °F -25.6 °F -18.4 °F 65% 29.99 in 10.0 mi NNW 8.1 mph - N/A   Scattered Clouds
10:21 PM -9.4 °F -24.3 °F -18.4 °F 65% 29.99 in 10.0 mi NW 6.9 mph - N/A   Clear
10:41 PM -11.2 °F -23.0 °F -20.2 °F 64% 30.01 in 10.0 mi WNW 4.6 mph - N/A   Clear
11:01 PM -11.2 °F -23.0 °F -20.2 °F 64% 30.01 in 10.0 mi NNW 4.6 mph - N/A   Clear
11:21 PM -11.2 °F -26.4 °F -20.2 °F 64% 30.02 in 10.0 mi NNW 6.9 mph - N/A   Scattered Clouds
11:41 PM -11.2 °F -29.0 °F -20.2 °F 64% 30.02 in 10.0 mi NNW 9.2 mph - N/A   Clear